Location: Fairview
(40.8165°N, 122.7667°W)
Time: 16:28:47
(UTC+00:00)

Cosmos-2242 - Pass Details

Date: 13 June 2024
Orbit: 578 x 604 km, 82.5° (Epoch: 24 July)

Event Time Altitude Azimuth Distance (km) Brightness Sun altitude
Rises 11:58:25 0° 356° (N) 2,869 7.0 -7.1°
Reaches altitude 10° 12:00:41 10° 0° (N) 1,958 6.2 -6.7°
Maximum altitude 12:04:58 59° 80° (E) 701 3.7 -6.1°
Drops below altitude 10° 12:09:11 10° 160° (SSE) 1,930 5.4 -5.5°
Sets 12:11:23 0° 164° (SSE) 2,823 6.2 -5.1°
